Regional Weather Roundup
Issued by NWS

Home | Current Version | Previous Version | Graphics & Text | Print | Product List | Glossary On
Versions: 1 2 3 4 5 6 7 8 9 10 11 12 13 14 15 16 17 18 19 20 21 22 23 24 25 26 27 28 29 30 31 32 33 34 35 36 37 38 39 40 41 42 43 44 45 46 47 48 49 50
000
ASUS43 KIND 021709
RWRIN

WEATHER ROUNDUP FOR INDIANA
NATIONAL WEATHER SERVICE INDIANAPOLIS IN
1200 PM EST MON MAR 02 2015

NOTE: "FAIR" INDICATES FEW OR NO CLOUDS BELOW 12,000 FEET WITH NO
SIGNIFICANT WEATHER AND/OR OBSTRUCTIONS TO VISIBILITY.

* - STATION DOES NOT REPORT WEATHER SUCH AS PRECIPITATION OR FOG.

+ - STATION NOT QUALITY CONTROLLED BY THE NATIONAL WEATHER SERVICE.
    USE DATA WITH CAUTION...ESPECIALLY DEWPOINT AND RELATIVE
    HUMIDITY OBSERVATIONS.

INZ001>003-010>013-019-020-021800-
NORTHWEST INDIANA

CITY           SKY/WX    TMP DP  RH WIND       PRES   REMARKS
GARY /AIRPORT/ MOSUNNY   28  12  50 N7        30.54R WCI  21
KNOX *+          N/A     21   0  39 CALM      30.52R
LA PORTE +     SUNNY     28  17  61 NW6       30.52R WCI  22
MICHIGAN CITY+ MOSUNNY   27  12  54 N6        30.53R WCI  20
MONTICELLO +   SUNNY     19  12  72 S5        30.54R WCI  12
RENSSELAER +   SUNNY     23  18  80 CALM      30.54R
VALPARAISO     FAIR      27  15  61 CALM      30.52R

$$

LMZ046-743>745-021800-
SOUTHERN LAKE MICHIGAN

STATION/POSITION TIME  TEMP WIND        PRES
                       AIR  DIR/SP/G
                 (UTC) (F)  (DEG/KT/KT) (MB)
MICHIGAN CITY    1700   28  300/  5/  6   N/A

$$

INZ004-005-014>016-021>024-021800-
NORTH CENTRAL INDIANA

CITY           SKY/WX    TMP DP  RH WIND       PRES   REMARKS
ELKHART        MOSUNNY   28  14  54 W6        30.50S WCI  22
GOSHEN         SUNNY     24  16  71 W3        30.50R
LOGANSPORT +   SUNNY     19  14  79 S6        30.54R WCI  11
PERU/GRISSOM   SUNNY     18  11  74 W5        30.52R WCI  11
ROCHESTER +    SUNNY     27  16  63 CALM      30.53R
SOUTH BEND     MOSUNNY   28  17  63 W10       30.52R WCI  19
WARSAW +       SUNNY     27  16  63 W3        30.51S

$$

INZ006>009-017-018-025>027-021800-
NORTHEAST INDIANA

CITY           SKY/WX    TMP DP  RH WIND       PRES   REMARKS
ANGOLA *+      MOSUNNY   28  18  64 W9        30.47S WCI  20
AUBURN +       SUNNY     28  16  59 W7        30.50S WCI  21
FORT WAYNE     MOSUNNY   25  16  68 SW6       30.51S WCI  18
HUNTINGTON +   SUNNY     24  11  57 W3        30.51S

$$

INZ028-029-035-036-043>045-051>053-021800-
WEST CENTRAL INDIANA

CITY           SKY/WX    TMP DP  RH WIND       PRES   REMARKS
CRAWFORDSVL +  SUNNY     24  10  54 SE5       30.54S WCI  18
GREENCASTLE +  MOSUNNY   27  10  50 CALM      30.54S
LAFAYETTE      SUNNY     23  13  65 CALM      30.55R
TERRE HAUTE    MOSUNNY   27  16  63 CALM      30.55F

$$

INZ030>032-037>040-046>048-054>057-064-065-021800-
CENTRAL INDIANA

CITY           SKY/WX    TMP DP  RH WIND       PRES   REMARKS
ANDERSON       SUNNY     23  12  63 CALM      30.54R
CP ATTERBURY + SUNNY     30  14  51 CALM      30.57R
COLUMBUS       SUNNY     27  10  50 CALM      30.57R
FRANKFORT +    SUNNY     23  15  71 S5        30.56R WCI  17
GREENWOOD *+   SUNNY     27  12  54 CALM      30.55R
INDIANAPOLIS   PTSUNNY   27  14  58 CALM      30.54R
-EAGLE CREEK   SUNNY     27  13  55 CALM      30.53S
KOKOMO *+      SUNNY     23  16  74 SW3       30.53S
MARION +       SUNNY     19  11  68 W5        30.53S WCI  13
MT COMFORT *+  SUNNY     27   5  39 CALM      30.54R
SHELBYVILLE    SUNNY     26  13  57 CALM      30.54S
ZIONSVILLE +   SUNNY     25  13  59 CALM      30.53S

$$

INZ033-034-041-042-049-050-058-059-021800-
EAST CENTRAL INDIANA

CITY           SKY/WX    TMP DP  RH WIND       PRES   REMARKS
MUNCIE         SUNNY     23  12  62 N5        30.52S WCI  17

$$

INZ060-061-067>069-081>083-085>088-021800-
SOUTHWEST INDIANA

CITY           SKY/WX    TMP DP  RH WIND       PRES   REMARKS
EVANSVILLE     MOSUNNY   34  18  52 E10       30.55F WCI  26
HUNTINGBURG *+ SUNNY     30  16  55 NE9       30.55S WCI  22
WASHINGTON +   MOSUNNY   27  14  57 N3        30.55F

$$

INZ062-063-066-070>080-084-089>092-021800-
SOUTH CENTRAL AND SOUTHEAST INDIANA

CITY           SKY/WX    TMP DP  RH WIND       PRES   REMARKS
BLOOMINGTON    SUNNY     31  15  52 CALM      30.53S
NORTH VERNON + SUNNY     28  14  54 NE6       30.55S WCI  22
SEYMOUR +      SUNNY     32  16  51 W3        30.57R

$$



USA.gov is the U.S. government's official web portal to all federal, state and local government web resources and services.